Date String (YYYY-MM-DD hh:mm:ss) UTC,Instrument flags,Ambient pressure (hPa),Sample flow (lpm),Bypass flow (lpm),Sample temperature (°C),Ambient temperature (°C),ASC tube jacket temperature (°C),LED temperature (°C),Box temperature (°C),Sample RH (%),Span deviation,Mass concentration (μg/m³),Mass concentration (μg/m³),Mass concentration (μg/m³)
DateTimeUTC,F1_M11,P_M11,Q1_M11,Q2_M11,T1_M11,T2_M11,T3_M11,T4_M11,T5_M11,U1_M11,ZSPAN_M11,X2_M11,X0_M11,X1_M11
2021-09-27 20:00:00,,0825.4,5.01,0.00,29.2,26.9,00.0,38.1,30.7,13.1,0000.0,0005.35,0015.99,0004.24
2021-09-27 20:01:00,,0825.4,5.00,0.00,29.0,25.7,00.0,38.1,30.4,13.1,0000.0,0005.37,0015.51,0004.25
2021-09-27 20:02:00,,0825.3,4.99,0.00,29.0,26.0,00.0,38.1,30.5,13.2,0000.0,0005.34,0014.55,0004.23
2021-09-27 20:03:00,,0825.3,5.00,0.00,29.0,26.5,00.0,38.0,30.6,13.2,0000.0,0005.31,0013.82,0004.23
2021-09-27 20:04:00,,0825.3,5.01,0.00,29.0,26.9,00.0,38.0,30.7,13.2,0000.0,0005.32,0014.53,0004.23
2021-09-27 20:05:00,,0825.3,4.99,0.00,29.0,27.3,00.0,38.0,30.8,13.2,0000.0,0005.36,0014.68,0004.24
2021-09-27 20:06:00,,0825.4,5.00,0.00,29.1,27.7,00.0,38.0,30.9,13.1,0000.0,0005.37,0014.43,0004.24
2021-09-27 20:07:00,,0825.3,5.00,0.00,29.1,28.0,00.0,38.1,31.0,13.1,0000.0,0005.41,0013.29,0004.24
2021-09-27 20:08:00,,0825.4,4.99,0.00,29.2,28.2,00.0,38.1,31.1,13.2,0000.0,0005.43,0013.49,0004.25
2021-09-27 20:09:00,,0825.3,5.00,0.00,29.3,28.4,00.0,38.1,31.2,13.4,0000.0,0005.46,0014.23,0004.26
2021-09-27 20:10:00,,0825.3,5.01,0.00,29.3,27.2,00.0,38.1,30.8,13.2,0000.5,0005.49,0014.58,0004.27
2021-09-27 20:11:00,,0825.3,4.99,0.00,29.1,25.8,00.0,38.1,30.4,13.4,0003.2,0005.45,0014.79,0004.27
2021-09-27 20:12:00,,0825.2,5.00,0.00,29.0,26.1,00.0,38.1,30.5,13.3,0002.3,0005.45,0014.68,0004.26
2021-09-27 20:13:00,,0825.2,4.99,0.00,29.0,26.5,00.0,38.1,30.7,13.4,0002.6,0005.45,0015.13,0004.26
2021-09-27 20:14:00,,0825.2,5.01,0.00,29.0,27.0,00.0,38.1,30.8,13.4,0003.4,0005.45,0014.96,0004.27
2021-09-27 20:15:00,,0825.2,4.99,0.00,29.1,27.4,00.0,38.1,30.9,13.3,0003.2,0005.51,0014.69,0004.30
2021-09-27 20:16:00,,0825.2,5.00,0.00,29.1,27.8,00.0,38.1,31.0,13.5,0002.8,0005.59,0015.38,0004.35
2021-09-27 20:17:00,,0825.2,5.01,0.00,29.2,28.1,00.0,38.1,31.1,13.7,0002.7,0005.70,0016.89,0004.40
2021-09-27 20:18:00,,0825.2,4.99,0.00,29.3,27.8,00.0,38.1,31.0,13.5,0002.4,0005.76,0018.33,0004.46
2021-09-27 20:19:00,,0825.2,5.00,0.00,29.2,26.2,00.0,38.1,30.6,13.2,0002.0,0005.82,0018.43,0004.51
2021-09-27 20:20:00,,0825.2,5.01,0.00,29.0,25.8,00.0,38.1,30.4,13.4,0001.1,0005.89,0017.51,0004.55
2021-09-27 20:21:00,,0825.2,5.00,0.00,29.0,26.2,00.0,38.1,30.5,13.0,0001.0,0005.96,0018.04,0004.60
2021-09-27 20:22:00,,0825.2,4.99,0.00,29.0,26.7,00.0,38.0,30.7,13.2,0001.3,0006.01,0018.21,0004.65
2021-09-27 20:23:00,,0825.2,5.01,0.00,29.0,27.1,00.0,38.0,30.8,13.3,0001.6,0006.08,0018.47,0004.71
2021-09-27 20:24:00,,0825.1,4.99,0.00,29.1,27.5,00.0,38.1,30.9,13.2,0002.0,0006.18,0018.96,0004.77
2021-09-27 20:25:00,,0825.1,5.01,0.00,29.1,27.9,00.0,38.1,31.0,13.3,0001.7,0006.32,0020.16,0004.82
2021-09-27 20:26:00,,0825.1,4.99,0.00,29.2,28.2,00.0,38.1,31.1,13.6,0001.3,0006.40,0020.79,0004.85
2021-09-27 20:27:00,,0825.1,5.00,0.00,29.3,28.0,00.0,38.1,31.1,13.7,0002.0,0006.44,0021.11,0004.88
2021-09-27 20:28:00,,0825.0,5.00,0.00,29.2,26.4,00.0,38.1,30.7,13.7,0002.3,0006.47,0020.60,0004.90
2021-09-27 20:29:00,,0825.0,5.02,0.00,29.0,25.9,00.0,38.1,30.5,13.8,0002.5,0006.52,0020.56,0004.92
2021-09-27 20:30:00,,0824.9,5.00,0.00,29.0,26.3,00.0,38.1,30.6,13.5,0003.1,0006.55,0020.76,0004.93
2021-09-27 20:31:00,,0824.9,4.99,0.00,29.0,26.7,00.0,38.1,30.7,13.3,0002.8,0006.57,0021.79,0004.94
2021-09-27 20:32:00,,0824.9,5.01,0.00,29.0,27.1,00.0,38.0,30.8,13.5,0002.4,0006.55,0021.73,0004.94
2021-09-27 20:33:00,,0824.9,4.99,0.00,29.1,27.6,00.0,38.1,31.0,13.8,0002.3,0006.57,0022.42,0004.95
2021-09-27 20:34:00,,0824.9,5.00,0.00,29.2,27.9,00.0,38.1,31.1,13.2,0002.0,0006.56,0023.93,0004.95
2021-09-27 20:35:00,,0824.9,5.01,0.00,29.3,28.2,00.0,38.1,31.2,13.0,0001.9,0006.52,0023.37,0004.95
2021-09-27 20:36:00,,0824.9,4.98,0.00,29.3,27.3,00.0,38.1,30.9,13.6,0002.3,0006.47,0022.67,0004.96
2021-09-27 20:37:00,,0824.9,5.01,0.00,29.1,25.9,00.0,38.1,30.5,13.5,0002.8,0006.42,0022.45,0004.96
2021-09-27 20:38:00,,0824.9,5.00,0.00,29.0,26.0,00.0,38.1,30.5,13.5,0002.4,0006.37,0022.41,0004.94
2021-09-27 20:39:00,,0824.9,5.00,0.00,29.0,26.5,00.0,38.1,30.6,13.9,0002.3,0006.31,0022.20,0004.92
2021-09-27 20:40:00,,0824.9,4.99,0.00,29.0,26.8,00.0,38.1,30.7,13.6,0001.9,0006.34,0021.79,0004.89
2021-09-27 20:41:00,,0824.9,5.00,0.00,29.0,27.3,00.0,38.0,30.8,13.8,0001.6,0006.28,0022.07,0004.88
2021-09-27 20:42:00,,0824.8,5.00,0.00,29.1,27.6,00.0,38.1,31.0,13.8,0002.1,0006.20,0021.50,0004.87
2021-09-27 20:43:00,,0824.8,5.00,0.00,29.2,27.9,00.0,38.1,31.1,13.5,0002.5,0006.22,0021.97,0004.87
2021-09-27 20:44:00,,0824.9,4.99,0.00,29.2,28.3,00.0,38.1,31.2,13.4,0002.4,0006.27,0021.48,0004.88
2021-09-27 20:45:00,,0824.9,5.01,0.00,29.3,27.5,00.0,38.1,30.9,13.2,0002.5,0006.33,0020.68,0004.89
2021-09-27 20:46:00,,0824.8,4.99,0.00,29.1,25.9,00.0,38.1,30.4,13.4,0002.6,0006.42,0021.56,0004.90
2021-09-27 20:47:00,,0824.8,5.01,0.00,29.0,25.9,00.0,38.1,30.4,13.5,0002.4,0006.44,0022.62,0004.89
2021-09-27 20:48:00,,0824.7,4.99,0.00,29.0,26.4,00.0,38.1,30.6,13.6,0001.9,0006.44,0023.98,0004.88
2021-09-27 20:49:00,,0824.7,5.01,0.00,29.0,26.8,00.0,38.0,30.7,13.6,0001.7,0006.43,0025.57,0004.87
2021-09-27 20:50:00,,0824.7,4.98,0.00,29.0,27.2,00.0,38.0,30.8,13.4,0001.5,0006.49,0025.23,0004.88
2021-09-27 20:51:00,,0824.7,4.99,0.00,29.1,27.6,00.0,38.1,31.0,13.0,0001.3,0006.43,0025.10,0004.89
2021-09-27 20:52:00,,0824.7,5.00,0.00,29.2,27.9,00.0,38.1,31.1,13.1,0001.2,0006.41,0024.45,0004.90
2021-09-27 20:53:00,,0824.7,5.01,0.00,29.2,27.9,00.0,38.1,31.1,12.9,0001.5,0006.43,0025.33,0004.91
2021-09-27 20:54:00,,0824.7,5.00,0.00,29.1,26.4,00.0,38.1,30.6,12.9,0001.7,0006.42,0024.65,0004.91
2021-09-27 20:55:00,,0824.6,4.99,0.00,29.0,25.6,00.0,38.1,30.3,13.2,0001.9,0006.38,0024.78,0004.91
2021-09-27 20:56:00,,0824.7,5.01,0.00,28.9,26.1,00.0,38.1,30.4,13.3,0001.5,0006.33,0024.03,0004.91
2021-09-27 20:57:00,,0824.7,4.99,0.00,28.9,26.5,00.0,38.0,30.5,13.3,0001.2,0006.28,0022.76,0004.92
2021-09-27 20:58:00,,0824.6,5.00,0.00,28.9,26.9,00.0,38.0,30.7,13.2,0001.1,0006.27,0021.79,0004.93
2021-09-27 20:59:00,,0824.6,5.01,0.00,29.0,27.3,00.0,38.0,30.8,13.3,0001.4,0006.25,0020.44,0004.94
